Wind_Speed
31 31 32 31 31 31 31 31 32 31 31 29 30 31 31 31 32 33 33 34 35 36 37 38 38 38 40 41 42 43 44 45 46 47 48 49 50 50 51 51 51 51 51 51
31 32 32 31 30 30 30 30 30 31 30 29 29 30 31 31 32 32 32 33 34 34 35 36 37 37 37 39 41 43 43 45 46 47 48 48 49 49 50 51 51 51 51 51
31 31 32 31 29 29 29 29 30 31 30 29 29 30 30 30 30 30 30 31 32 33 33 34 34 35 36 38 39 41 43 43 44 45 46 46 47 49 49 49 50 50 50 50
31 30 31 30 29 28 29 29 31 31 30 30 29 29 30 29 29 28 29 29 29 30 31 32 33 34 35 37 38 39 40 41 42 44 45 45 46 48 48 48 48 48 49 50
30 31 30 28 29 28 28 28 29 30 30 29 29 28 29 29 28 28 28 28 28 29 30 31 32 33 34 35 36 37 38 39 40 41 43 44 46 46 47 47 48 49 49 50
30 31 30 28 27 28 29 28 27 28 28 28 28 28 28 29 28 28 28 28 28 29 30 31 31 32 33 33 34 36 36 38 39 40 41 42 44 45 45 46 47 48 48 49
29 30 29 28 28 27 27 27 27 27 27 26 26 26 27 27 28 28 28 28 29 29 30 30 31 31 32 33 34 34 35 36 37 38 39 40 41 43 43 44 45 46 47 48
28 29 28 28 28 27 27 27 26 26 26 26 26 26 26 26 27 27 28 28 29 30 30 31 31 32 32 33 34 34 35 35 35 35 36 37 38 40 41 42 43 43 44 45
28 27 27 27 28 27 27 26 26 26 26 26 27 27 27 27 27 27 28 28 28 29 30 30 31 31 32 32 33 33 34 35 35 35 35 36 37 38 39 40 41 41 42 42
27 27 27 27 27 27 27 27 27 27 27 28 28 28 28 28 28 28 28 29 29 29 29 29 30 30 31 32 32 32 33 34 34 34 34 35 36 37 37 39 40 41 41 42
28 27 28 27 27 27 27 27 27 28 28 28 28 28 28 28 29 29 29 29 29 29 29 28 28 28 29 30 30 31 32 33 34 34 35 34 35 35 36 37 38 39 40 40
29 28 28 27 26 27 27 27 27 28 28 29 29 30 30 29 29 29 29 29 29 29 29 28 28 28 28 29 29 30 31 32 32 33 33 34 34 35 36 36 37 38 39 39
29 29 29 28 27 27 27 27 28 27 27 28 29 30 30 30 29 29 29 29 29 29 29 28 28 28 28 29 29 30 30 30 30 31 31 32 33 34 35 36 36 36 37 37
30 30 29 28 28 28 28 28 28 29 29 29 29 30 30 31 30 30 29 29 28 27 27 27 27 28 28 28 29 29 29 29 29 30 30 30 31 32 33 34 35 36 37 38
30 31 30 29 29 29 29 29 29 30 30 30 30 30 30 30 31 31 30 29 28 28 28 28 28 28 28 28 28 28 28 29 29 29 29 29 29 30 31 32 32 33 35 36
30 31 30 30 29 29 29 29 30 30 30 29 29 30 30 30 31 31 30 30 29 29 29 28 29 29 29 29 29 29 29 29 29 29 29 29 29 29 30 31 31 31 32 33
30 30 30 30 30 30 30 30 30 30 29 29 30 30 30 30 30 30 30 30 30 30 29 29 29 29 30 30 30 30 29 29 29 29 29 29 29 29 29 30 30 31 31 32
29 29 29 30 30 30 30 30 31 31 30 30 30 30 30 30 30 30 30 30 30 30 30 30 30 30 30 30 30 30 29 29 29 29 29 29 29 29 29 30 30 30 31 31
29 29 30 31 31 30 30 30 31 31 31 31 30 30 30 29 29 29 29 30 30 29 29 29 29 29 30 30 30 29 29 29 29 29 29 29 29 29 29 29 30 31 31 31
30 30 31 31 31 31 31 31 31 31 31 30 30 30 30 29 29 29 29 29 29 29 29 29 29 29 30 29 29 29 29 28 28 28 28 28 28 29 29 29 29 30 30 30
30 31 31 31 31 31 31 31 31 30 30 30 30 29 29 28 28 28 28 27 28 28 28 28 29 29 28 28 27 27 27 27 27 27 27 27 27 28 28 28 29 29 29 29
32 32 31 31 31 31 30 30 30 29 29 29 29 29 28 28 27 27 27 27 27 27 27 28 27 27 27 27 26 26 26 26 26 26 27 27 27 27 28 28 28 29 29 30
31 31 31 30 30 30 29 29 28 28 29 28 28 28 28 27 27 27 27 27 27 27 27 27 27 27 26 26 25 25 26 26 26 26 26 27 27 27 28 28 28 29 29 30
30 30 30 29 29 29 28 28 28 28 28 28 28 27 27 26 26 26 27 27 27 27 27 27 27 26 26 25 25 25 26 26 26 26 27 27 27 28 28 28 28 29 29 29
29 29 29 29 28 28 27 27 27 27 27 28 28 28 27 27 27 27 27 26 26 26 26 26 26 26 26 26 25 26 26 26 27 27 27 28 28 28 28 28 28 29 28 29
29 29 29 28 28 28 27 27 27 27 27 27 28 28 27 27 27 27 26 26 26 26 26 25 25 26 26 26 26 26 26 27 27 27 28 28 28 28 28 28 28 28 28 28
30 29 29 28 28 27 27 27 27 27 27 27 27 27 27 27 27 26 26 26 25 25 25 25 25 25 25 26 26 27 27 27 27 28 28 28 28 28 28 27 27 28 28 29
Wind_Direction
283 283 283 281 279 277 277 277 277 277 275 274 273 273 273 273 272 271 270 268 266 265 263 262 262 262 260 259 258 258 257 257 256 256 255 255 254 254 253 253 254 253 254 255
285 283 283 281 279 278 277 277 277 278 277 276 274 274 275 276 275 272 271 269 269 267 267 264 263 262 261 260 260 260 259 258 258 258 257 256 254 254 255 255 255 254 254 254
288 285 284 282 282 279 276 277 277 277 277 277 275 275 276 276 275 274 273 272 271 269 268 267 265 264 262 262 261 260 260 259 259 259 258 256 255 255 256 256 256 255 254 254
291 289 286 286 283 281 278 276 276 277 276 276 276 276 275 274 274 275 274 273 273 272 270 270 269 267 265 264 262 262 262 261 259 259 258 257 257 256 255 255 255 254 254 254
292 290 290 289 286 284 281 278 277 277 275 275 275 274 272 272 273 274 274 275 275 274 273 273 272 271 269 267 265 264 263 261 260 260 259 257 256 256 255 255 255 254 254 255
294 293 293 293 289 286 283 280 278 277 277 277 275 273 272 273 273 273 274 274 275 276 276 276 275 274 272 269 267 266 264 263 262 261 260 258 257 256 256 256 255 254 254 255
296 296 296 294 292 289 286 284 281 279 279 279 278 276 274 274 274 273 273 274 274 275 276 277 277 276 274 271 269 268 266 265 263 262 261 260 258 257 257 257 256 255 255 256
297 297 298 295 293 291 288 285 282 281 280 279 278 277 276 275 275 274 274 275 275 275 277 278 278 278 276 273 271 268 267 266 265 265 263 261 259 258 258 257 257 256 257 256
297 297 297 296 295 292 288 285 283 281 280 280 278 278 277 276 275 277 277 276 276 277 277 279 279 279 277 275 272 270 268 267 266 266 265 262 261 260 259 258 257 257 257 256
297 297 296 295 295 293 289 286 282 280 280 280 279 278 278 277 277 278 278 278 278 279 278 279 280 279 278 276 274 272 270 268 268 267 267 265 264 261 260 258 257 257 257 256
296 296 294 294 291 290 289 286 284 281 280 280 280 279 279 278 279 278 279 280 280 280 279 279 279 279 278 277 276 274 272 270 268 267 266 266 265 263 262 262 260 259 258 258
296 295 295 294 291 289 288 288 286 283 281 280 279 280 280 279 278 278 279 280 280 280 280 279 279 279 279 278 278 277 275 273 271 270 268 266 266 265 264 263 262 261 260 260
295 295 294 293 290 289 288 287 285 284 284 282 281 281 280 279 279 278 279 280 280 280 279 278 279 279 279 279 279 279 278 276 273 271 270 268 267 266 265 264 263 261 261 261
293 293 293 292 289 287 287 286 284 284 285 284 282 281 280 279 278 278 278 278 278 278 278 278 279 279 280 279 279 278 278 277 275 273 272 270 268 267 266 266 265 263 262 262
292 292 292 292 291 289 288 287 286 284 284 284 283 282 282 281 279 277 277 277 277 277 277 278 279 279 279 280 279 278 278 278 277 275 273 271 270 269 267 267 267 266 264 263
292 292 292 293 292 290 289 289 287 286 286 285 284 283 283 283 281 278 275 275 276 277 277 278 279 279 280 280 279 279 278 278 276 275 275 272 271 271 270 268 268 267 266 265
293 294 294 294 293 291 290 289 288 287 286 285 284 284 284 284 282 280 277 275 276 277 278 278 278 279 280 280 279 279 278 277 275 274 274 273 271 271 270 269 268 267 267 267
294 294 295 294 293 292 290 288 287 287 286 285 284 283 283 283 282 281 278 276 276 277 278 278 279 279 279 279 278 277 276 275 273 273 274 273 272 271 271 270 269 269 269 270
293 294 294 295 295 293 291 289 288 287 286 286 285 284 284 284 283 282 280 277 276 276 278 278 279 280 279 278 277 276 275 274 273 272 273 273 272 271 271 271 270 271 270 271
295 294 295 296 295 293 291 290 289 288 287 286 286 285 284 284 284 284 282 279 276 275 277 278 279 280 280 279 278 277 276 275 273 272 272 273 272 272 272 272 272 272 272 272
296 296 296 295 295 293 292 290 289 289 288 287 287 287 285 285 285 284 282 279 277 276 277 278 279 280 280 279 278 276 275 275 274 274 274 274 273 273 273 273 273 273 273 273
296 296 296 295 295 293 292 291 289 288 288 288 288 287 286 285 285 284 282 280 278 278 278 278 279 279 279 278 277 276 275 276 276 275 275 274 273 273 274 274 274 274 275 275
296 296 296 296 297 295 293 291 289 288 287 287 288 288 286 284 283 283 282 280 279 279 279 278 278 279 279 277 277 276 276 276 276 275 275 275 275 275 276 276 276 276 276 276
296 297 296 297 297 296 294 292 290 289 287 287 287 287 286 284 283 283 283 282 280 280 280 278 277 277 278 277 276 277 277 277 276 276 277 277 277 277 278 278 278 278 278 277
297 296 296 296 296 296 295 294 292 291 289 288 287 287 285 284 283 283 283 283 282 281 279 277 276 276 276 276 276 276 276 277 277 277 278 278 277 277 277 277 277 277 277 278
297 296 296 295 295 295 295 295 293 292 290 289 288 287 286 285 285 284 284 283 281 281 280 279 278 277 275 275 276 276 277 278 278 277 278 277 277 277 277 277 277 278 278 279
296 296 296 295 295 295 296 295 295 294 292 290 289 289 287 286 286 285 284 283 282 282 282 281 280 279 277 276 275 276 277 277 277 277 277 277 277 277 276 277 277 278 279 280
Height
5552 5550 5549 5548 5547 5546 5545 5544 5543 5543 5543 5544 5543 5542 5541 5541 5540 5540 5540 5540 5540 5540 5541 5541 5542 5543 5543 5544 5546 5547 5549 5550 5553 5555 5557 5560 5562 5564 5567 5570 5572 5575 5577 5580
5544 5542 5540 5539 5539 5538 5536 5536 5535 5534 5535 5535 5534 5533 5532 5531 5531 5530 5530 5530 5530 5530 5530 5531 5531 5532 5532 5533 5534 5535 5537 5538 5540 5541 5544 5546 5548 5550 5553 5555 5558 5560 5563 5566
5535 5534 5531 5530 5531 5529 5528 5528 5527 5526 5527 5526 5525 5524 5523 5522 5522 5521 5521 5521 5521 5521 5521 5521 5521 5521 5522 5522 5523 5523 5524 5526 5527 5528 5530 5532 5534 5536 5539 5541 5544 5546 5549 5552
5526 5526 5523 5526 5523 5521 5520 5520 5519 5518 5518 5518 5517 5516 5515 5514 5513 5513 5512 5512 5512 5511 5511 5511 5511 5511 5511 5511 5512 5512 5512 5513 5514 5515 5516 5518 5520 5523 5525 5527 5530 5533 5535 5538
5518 5516 5515 5517 5515 5513 5512 5512 5511 5510 5509 5509 5508 5507 5507 5506 5505 5504 5504 5504 5503 5502 5502 5501 5501 5501 5500 5500 5500 5501 5501 5501 5502 5502 5504 5505 5507 5509 5511 5514 5516 5519 5521 5524
5512 5508 5507 5510 5507 5505 5504 5503 5503 5501 5500 5500 5499 5499 5500 5498 5497 5496 5496 5495 5494 5494 5493 5492 5492 5491 5490 5490 5490 5490 5490 5490 5490 5491 5491 5493 5495 5496 5498 5500 5503 5505 5508 5510
5505 5502 5501 5502 5499 5498 5497 5497 5495 5493 5492 5492 5491 5491 5490 5489 5489 5488 5487 5486 5486 5485 5484 5483 5482 5481 5480 5480 5480 5479 5479 5479 5479 5479 5480 5481 5482 5484 5486 5488 5490 5492 5495 5497
5499 5497 5498 5494 5492 5491 5490 5488 5486 5485 5484 5484 5483 5482 5482 5481 5480 5479 5478 5477 5477 5476 5475 5474 5473 5472 5471 5470 5469 5469 5469 5469 5469 5469 5469 5469 5471 5472 5474 5476 5478 5480 5482 5484
5494 5494 5490 5487 5485 5483 5481 5480 5479 5477 5477 5476 5475 5475 5474 5473 5472 5471 5470 5469 5468 5467 5466 5465 5463 5462 5461 5460 5459 5459 5459 5458 5458 5458 5459 5459 5460 5461 5462 5464 5466 5468 5470 5472
5487 5486 5483 5480 5478 5476 5474 5473 5471 5470 5469 5468 5467 5466 5466 5464 5463 5462 5461 5460 5459 5458 5456 5455 5454 5453 5451 5450 5449 5449 5449 5448 5448 5448 5448 5448 5449 5450 5451 5453 5455 5456 5458 5460
5480 5478 5476 5473 5471 5469 5467 5465 5464 5463 5461 5460 5459 5458 5457 5456 5454 5453 5452 5451 5450 5449 5447 5446 5445 5444 5442 5441 5440 5440 5439 5438 5438 5438 5438 5438 5439 5439 5441 5442 5443 5445 5446 5448
5473 5471 5468 5467 5464 5462 5460 5458 5456 5455 5454 5452 5450 5449 5448 5447 5446 5444 5443 5442 5441 5440 5438 5437 5436 5435 5434 5432 5431 5430 5430 5429 5428 5428 5428 5428 5428 5429 5429 5431 5432 5433 5434 5436
5465 5463 5460 5458 5456 5454 5452 5450 5449 5447 5445 5443 5442 5440 5439 5438 5437 5436 5435 5433 5432 5431 5430 5429 5428 5427 5425 5424 5423 5421 5420 5419 5419 5418 5418 5418 5418 5419 5419 5420 5421 5422 5423 5424
5458 5455 5453 5450 5448 5446 5444 5442 5441 5439 5437 5435 5433 5432 5430 5429 5428 5427 5426 5425 5424 5423 5422 5420 5419 5418 5417 5415 5414 5413 5412 5410 5410 5409 5409 5408 5408 5408 5409 5409 5410 5411 5412 5413
5450 5447 5445 5443 5440 5438 5436 5434 5432 5431 5428 5427 5425 5423 5421 5420 5419 5418 5417 5416 5415 5414 5413 5412 5411 5410 5408 5407 5405 5404 5403 5402 5401 5400 5399 5399 5399 5399 5399 5399 5400 5400 5401 5402
5442 5439 5437 5435 5433 5430 5428 5426 5424 5422 5420 5418 5416 5414 5413 5411 5409 5408 5408 5407 5407 5406 5405 5403 5402 5401 5400 5398 5397 5396 5394 5393 5392 5391 5390 5390 5389 5389 5389 5389 5390 5390 5391 5392
5434 5431 5429 5427 5425 5422 5420 5417 5415 5413 5411 5409 5408 5406 5404 5402 5401 5399 5398 5398 5397 5396 5395 5394 5393 5392 5390 5389 5388 5386 5385 5384 5383 5382 5381 5381 5381 5380 5380 5380 5380 5381 5381 5382
5426 5423 5421 5419 5416 5413 5411 5409 5406 5404 5402 5401 5399 5397 5395 5393 5392 5390 5389 5388 5388 5387 5385 5384 5383 5382 5381 5380 5378 5377 5376 5375 5375 5374 5373 5372 5372 5371 5371 5371 5371 5372 5372 5372
5417 5415 5412 5410 5407 5405 5402 5400 5398 5396 5394 5392 5390 5388 5386 5384 5382 5380 5379 5378 5378 5377 5376 5375 5374 5373 5371 5370 5369 5368 5367 5366 5365 5365 5364 5363 5363 5362 5362 5362 5363 5362 5362 5362
5409 5406 5404 5401 5398 5396 5393 5391 5389 5387 5384 5382 5381 5379 5377 5375 5373 5372 5370 5369 5368 5368 5367 5366 5364 5363 5362 5361 5360 5358 5357 5356 5356 5355 5355 5354 5354 5354 5353 5353 5353 5353 5353 5352
5400 5398 5395 5392 5389 5387 5384 5382 5380 5378 5376 5374 5372 5370 5368 5366 5365 5363 5361 5360 5359 5358 5357 5356 5355 5354 5353 5352 5351 5349 5348 5348 5347 5347 5346 5345 5345 5345 5344 5344 5344 5343 5343 5343
5392 5389 5386 5383 5380 5378 5375 5373 5371 5369 5367 5365 5363 5361 5360 5358 5356 5354 5353 5352 5350 5349 5348 5347 5346 5345 5344 5343 5342 5341 5340 5339 5339 5338 5337 5337 5336 5336 5335 5335 5334 5334 5333 5333
5383 5380 5377 5374 5371 5369 5366 5364 5362 5360 5359 5357 5355 5353 5351 5349 5348 5346 5345 5343 5341 5340 5339 5338 5337 5336 5335 5335 5334 5333 5332 5331 5330 5329 5329 5328 5327 5327 5326 5325 5325 5324 5323 5323
5374 5371 5368 5365 5363 5360 5358 5356 5354 5352 5350 5348 5346 5344 5342 5341 5339 5337 5336 5334 5333 5332 5330 5329 5328 5328 5327 5326 5325 5325 5324 5323 5322 5321 5320 5319 5318 5317 5316 5316 5315 5314 5313 5312
5365 5362 5359 5357 5354 5352 5349 5347 5345 5343 5341 5339 5337 5336 5334 5332 5331 5329 5327 5325 5324 5323 5321 5320 5319 5319 5318 5317 5317 5316 5315 5314 5313 5312 5311 5310 5309 5308 5307 5306 5305 5304 5303 5302
5356 5353 5351 5348 5346 5344 5341 5339 5337 5335 5333 5331 5329 5327 5325 5323 5321 5320 5318 5317 5315 5314 5313 5312 5311 5310 5309 5309 5308 5307 5306 5305 5304 5303 5302 5300 5299 5298 5297 5296 5295 5294 5293 5292
5347 5345 5342 5340 5337 5335 5333 5330 5328 5326 5324 5322 5320 5318 5316 5314 5313 5311 5309 5308 5307 5305 5304 5303 5302 5301 5300 5299 5299 5298 5297 5296 5294 5293 5292 5291 5290 5289 5288 5287 5286 5285 5284 5283